"Pseudo-MPEC" for P10OSDp

Created 2019 Jun 16 22:07:49 UT using Find_Orb

Click here for an explanation of pseudo-MPECs

 
 Astrometry: 
     P10OSDp  C2019 05 08\^suZN3S3C)ZAstrometryvXfvFUq5uA37MOg[*45@Mb;-jO`#LDF51
     P10OSDp  C2019 05 087IWy2J7-k%xT?S8ThX[*thu#(ROLjR(GQ_ZUPAFU@d_qm9[NDUpsF51
     P10OSDp  C2019 05 082SK;Y;nbcy!wUQU-^tKxEME_bN]qDV)w[EWwms:lt7!K/W2n+]FPF51
     P10OSDp  C2019 05 111k5M?LE(N;dML;@y/3shy/y1#*o#[ZoJahw,,Y5wb(l)(!pU!8T1F51
     P10OSDp  C2019 05 278@hBiFW#o\d]YqDl`FjH(\+08UfmntX,:!(]G``vKS/vw!6wE8\DF51
     P10OSDp  C2019 05 276tyVAm+Sy!\]Hvwrq'Ro(hF('LdK=8$MYrXY%24aI6]FTUI6!OsDF51
     P10OSDp  C2019 05 27u!KHePe#T8\Kp`]*G,A_,OnUU+1^$UZ%Z(DdGGr9]S-9!l`agEn:F51
     P10OSDp  C2019 05 29#Ly40#CD\WA''nAG_L`;+J!nN'mlJ:6`q=fmxG;?ebYktcPHV!JJF52
     P10OSDp  C2019 05 29O+qkwu_h[W_!$]?#h[63]0w9`Ep;redacted;ItjUF6RAutW,YXdF52
     P10OSDp  C2019 05 29=[)t#06!tg;43eP\9tk_dD':r8RJeo_HibgSShM@]a-kjf5!P3\DF52
     P10OSDp  C2019 05 29,tE^y0-^Xv!y).B0NYq6\cZx)oS3)jX5d#s=gEV#y_1AI9@O6]/hF52
     P10OSDp  C2019 06 07@%BTb22wPipnVPJU`'TylOH+*h5txcFW_T?q@!/fI?pMuVT)UF3#F51
     P10OSDp  C2019 06 09,=Fuclick7LMTL+9[$d!ufeai*2=YhK=xLP!2GG-8MZmT?`5DKj?F51
     P10OSDp  C2019 06 09kUZZ:lQM5Wj3)t4;u64=\[KVu`FQs7`SLFW([4rH=G\2BL40jKEoF51
     P10OSDp  C2019 06 09'AV[gaTY!-_V-p^B+Vj#'5S#0wNVm/Q#jrD+?,ju9aY6FjHGa7GoF51
     P10OSDp  C2019 06 09;2FiB9yspik4hw.tA]g(=#Na^QbEh0:)vaMT7%I\m7Y!e!_S]VVfF51
     P10OSDp KC2019 06 10=n=%:_i.C?Ip]XPN7y1*7j,EEU]!fIrZ@QNYu7::LxLc7n9\To'yH21
     P10OSDp KC2019 06 10%dTEgLYaW.ARyCmmJEtLK]N=+Ay9kZlpyFhere;fLtN*\I\5l)]pH21
     P10OSDp KC2019 06 10(WC.nKKGJm8*`b),WforJY+RcB!yWG]nreK;s@@DtgHgY-MujZR:H21
     P10OSDp  C2019 06 10m8F0Z!ck#F`ufej9_08YR`G1mN-^b9RU+y?eT)1W)K,o6vcPa!/9F51
     P10OSDp  C2019 06 10a0J/91m!%y10RPv-3aq2%f!)Rb*!FU?7A!,MT6#;J3A*8a,:k9VOF51
     P10OSDp  C2019 06 10/2u58P/)R*T6MbL*#vHjqR)38w$+S-n?)^WYm;fw;@3B\_L96N)aF51
     P10OSDp KC2019 06 11Z2tr/RX=`L\i0nWchT$bAFD'L7qexplanationTA24--`q9hSE$v291
     P10OSDp KC2019 06 11/ryg5AA9*c9(D?toso'-hnM\f;51@2Ale.(,)AjF5MjTG9(A5rc]291
     P10OSDp KC2019 06 11FEJa55'GVtfLwqHfDmuE,#a'83kPYjA%5FvlRst*jCJh6E3vHN$;291

Station data:
(291) LPL/Spacewatch II  (N31.961669 W111.599905)  US/Arizona.  Observers J.
   V. Scotti, R. S. McMillan. 1.8-m f/2.7 reflector + CCD.
(F51) Pan-STARRS 1, Haleakala  (N20.707235 W156.255910)  US/Hawaii.
   Observers N. Primak, A. Schultz, S. Watters, J. Thiel, T. Goggia. Measurer
   PS1 Science Consortium. 1.8-m Ritchey-Chrétien + CCD.
(F52) Pan-STARRS 2, Haleakala  (N20.707384 W156.255910)  US/Hawaii. 1.8-m
   Ritchey-Chrétien + CCD.
(H21) Astronomical Research Observatory, Westfield  (N39.483057 W87.968270)
   US/Illinois. 0.76-m f/3.0 astrograph + CCD.

Orbital elements:  P10OSDp
   Perihelion 2019 Jul 6.027662 +/- 0.00073 TT =  0:39:50 (JD 2458670.527662)
Epoch 2019 Jun 11.0 TT = JDT 2458645.5   Earth MOID: 0.1553   Ma: 0.0348
M 351.99660826 +/- 0.0032           (J2000 ecliptic)          AutoNEOCP
n   0.31978183 +/- 0.000133         Peri.   83.17769 +/- 0.0034
a   2.11787434 +/- 0.000589         Node   198.34341 +/- 0.0031
e   0.4566945 +/- 0.000134          Incl.    4.19577 +/- 0.0011
P   3.08                   H 24.4   G  0.15   U  6.8  
q 1.15065261 +/- 3.71e-5    Q 3.08509607 +/- 0.00114
From 25 observations 2019 May 8-June 11; mean residual 0".86
Residuals in arcseconds: 
190508 F51  .07+  .02+    190529 F52  .34-  .16+    190610 H21  1.0-  .65-    
190508 F51  .19-  .14-    190529 F52  .12-  .19-    190610 F51  .93-  1.6-    
190508 F51  .05-  .03+    190607 F51  .65-  1.0-    190610 F51  .97-  1.5-    
190511 F51  .18+  .05+    190609 F51  .81-  1.3-    190610 F51  1.1-  1.6-    
190527 F51  .23-  .18-    190609 F51  .93-  1.3-    190611 291  1.2-  1.4-    
190527 F51  .23-  .18-    190609 F51  .87-  1.3-    190611 291  .95-  1.2-    
190527 F51  .25-  .20-    190609 F51  .86-  1.3-    190611 291  1.0-  1.5-    
190529 F52  .19-  .31-    190610 H21  1.1-  .79-    
190529 F52  .14+  .60-    190610 H21  1.2-  .65-    

Ephemerides (geocentric):
Date (UTC) HH   RA              Dec         delta   r     elong  mag " sig PA
---- -- -- --  -------------   -----------  ------ ------ -----  --- ---- ---
2019 06 16 22  16 49 17.903   +04 17 12.55  .17344 1.1690 149.8 22.1 .406 121
2019 06 16 23  16 49 24.200   +04 18 02.41  .17338 1.1690 149.8 22.1 .409 121
2019 06 17 00  16 49 30.506   +04 18 52.21  .17332 1.1689 149.8 22.1 .412 121
2019 06 17 01  16 49 36.818   +04 19 41.95  .17325 1.1688 149.7 22.1 .415 121
2019 06 17 02  16 49 43.138   +04 20 31.63  .17319 1.1687 149.7 22.1 .418 121
2019 06 17 03  16 49 49.465   +04 21 21.25  .17313 1.1686 149.7 22.1 .421 121
2019 06 17 04  16 49 55.800   +04 22 10.81  .17307 1.1686 149.7 22.1 .425 121
2019 06 17 05  16 50 02.142   +04 23 00.30  .17301 1.1685 149.7 22.1 .428 121
2019 06 17 06  16 50 08.491   +04 23 49.74  .17295 1.1684 149.6 22.1 .431 121
2019 06 17 07  16 50 14.848   +04 24 39.11  .17289 1.1683 149.6 22.1 .434 121
2019 06 17 08  16 50 21.212   +04 25 28.42  .17283 1.1683 149.6 22.1 .437 121
2019 06 17 09  16 50 27.583   +04 26 17.67  .17277 1.1682 149.6 22.1 .440 121
2019 06 17 10  16 50 33.962   +04 27 06.85  .17271 1.1681 149.6 22.1 .443 121
2019 06 17 11  16 50 40.348   +04 27 55.98  .17265 1.1680 149.5 22.1 .447 121
2019 06 17 12  16 50 46.741   +04 28 45.04  .17259 1.1679 149.5 22.1 .450 121
2019 06 17 13  16 50 53.142   +04 29 34.03  .17253 1.1679 149.5 22.1 .453 121
2019 06 17 14  16 50 59.550   +04 30 22.97  .17247 1.1678 149.5 22.1 .456 121
2019 06 17 15  16 51 05.965   +04 31 11.84  .17241 1.1677 149.5 22.1 .459 121
2019 06 17 16  16 51 12.388   +04 32 00.65  .17235 1.1676 149.4 22.1 .463 121
2019 06 17 17  16 51 18.818   +04 32 49.39  .17230 1.1676 149.4 22.1 .466 121
2019 06 17 18  16 51 25.256   +04 33 38.07  .17224 1.1675 149.4 22.1 .469 121
2019 06 17 19  16 51 31.700   +04 34 26.69  .17218 1.1674 149.4 22.1 .472 121
2019 06 17 20  16 51 38.152   +04 35 15.24  .17212 1.1673 149.4 22.1 .476 121
2019 06 17 21  16 51 44.612   +04 36 03.73  .17206 1.1673 149.3 22.1 .479 121
2019 06 17 22  16 51 51.079   +04 36 52.16  .17200 1.1672 149.3 22.1 .482 121
2019 06 17 23  16 51 57.553   +04 37 40.52  .17194 1.1671 149.3 22.1 .485 121
2019 06 18 00  16 52 04.034   +04 38 28.81  .17189 1.1670 149.3 22.1 .489 121
2019 06 18 01  16 52 10.523   +04 39 17.04  .17183 1.1670 149.3 22.1 .492 121
2019 06 18 02  16 52 17.019   +04 40 05.21  .17177 1.1669 149.2 22.1 .495 121
2019 06 18 03  16 52 23.522   +04 40 53.31  .17171 1.1668 149.2 22.1 .499 121
2019 06 18 04  16 52 30.033   +04 41 41.34  .17166 1.1667 149.2 22.1 .502 121
2019 06 18 05  16 52 36.551   +04 42 29.31  .17160 1.1667 149.2 22.1 .505 121
2019 06 18 06  16 52 43.076   +04 43 17.22  .17154 1.1666 149.2 22.1 .509 121
2019 06 18 07  16 52 49.609   +04 44 05.06  .17148 1.1665 149.1 22.1 .512 121
2019 06 18 08  16 52 56.149   +04 44 52.83  .17143 1.1664 149.1 22.1 .515 121
2019 06 18 09  16 53 02.696   +04 45 40.54  .17137 1.1664 149.1 22.1 .519 121
2019 06 18 10  16 53 09.250   +04 46 28.18  .17131 1.1663 149.1 22.1 .522 121
2019 06 18 11  16 53 15.812   +04 47 15.75  .17126 1.1662 149.1 22.1 .526 121
2019 06 18 12  16 53 22.382   +04 48 03.26  .17120 1.1661 149.0 22.1 .529 121
2019 06 18 13  16 53 28.958   +04 48 50.70  .17115 1.1661 149.0 22.1 .532 121
2019 06 18 14  16 53 35.542   +04 49 38.07  .17109 1.1660 149.0 22.1 .536 121
2019 06 18 15  16 53 42.133   +04 50 25.38  .17103 1.1659 149.0 22.1 .539 121
2019 06 18 16  16 53 48.731   +04 51 12.62  .17098 1.1659 149.0 22.1 .543 121
2019 06 18 17  16 53 55.337   +04 51 59.79  .17092 1.1658 149.0 22.1 .546 121
2019 06 18 18  16 54 01.950   +04 52 46.89  .17087 1.1657 148.9 22.1 .550 121
2019 06 18 19  16 54 08.570   +04 53 33.93  .17081 1.1656 148.9 22.1 .553 121
2019 06 18 20  16 54 15.198   +04 54 20.90  .17076 1.1656 148.9 22.1 .557 121
2019 06 18 21  16 54 21.833   +04 55 07.80  .17070 1.1655 148.9 22.1 .560 121